Home > Weather > Metairie > Past weeks

Flag for USA Past Weather in Metairie, Louisiana, USA — Yesterday and Last 2 Weeks

Now
83 °F

Passing clouds.


Feels Like: 88 °F
Forecast: 80 / 90 °F
Wind: 3 mph from Southeast

Location: New Orleans International Airport

Current Time: Jul 28, 2016 at 11:17:44 PM

Latest Report: Jul 28, 2016 at 10:53 PM


Visibility: 10 mi

Pressure: 30.02 "Hg

Humidity: 70%

Dew Point: 72 °F

Location of MetairieLocation

Past Weather in Metairie — Graph

°F

Metairie Temperature Yesterday

Maximum temperature yesterday: 87 °F (at 5:53 PM)
Minimum temperature yesterday: 77 °F (at 6:53 AM)
Average temperature yesterday: 81 °F

High & Low Weather Summary for the Past Weeks

 TemperatureHumidityPressure
High98 °F (Jul 20, 3:53 PM)91% (Jul 16, 2:53 AM)30.23 "Hg (Jul 16, 2:53 AM)
Low75 °F (Jul 16, 3:53 AM)40% (Jul 20, 2:53 PM)29.89 "Hg (Jul 26, 2:53 AM)
Average85 °F74%30.05 "Hg
* Reported Jul 13 9:53 PM — Jul 28 9:53 PM, Metairie, Weather by CustomWeather, © 2016

Note: Actual official high and low records may vary slightly from our data, if they occured in-between our weather recording intervals... More about our weather records

Advertising

Metairie Weather History for the Previous 24 Hours

Scroll right to see more
 ConditionsComfort  
Time TempWeatherWind HumidityBarometerVisibility
9:53 PM
Thu, Jul 28
84 °FPartly cloudy.No wind67%30.03 "Hg10 mi
8:53 PM84 °FBroken clouds.3 mph67%30.02 "Hg10 mi
7:53 PM85 °FCloudy.No wind65%30.01 "Hg10 mi
6:53 PM85 °FBroken clouds.7 mph65%30.00 "Hg10 mi
5:53 PM85 °FBroken clouds.9 mph72%30.01 "Hg9 mi
4:53 PM94 °FBroken clouds.14 mph52%29.98 "Hg10 mi
3:53 PM93 °FBroken clouds.12 mph56%30.00 "Hg10 mi
2:53 PM94 °FScattered clouds.14 mph58%30.01 "Hg10 mi
1:53 PM94 °FScattered clouds.12 mph56%30.03 "Hg10 mi
12:53 PM93 °FBroken clouds.10 mph56%30.05 "Hg10 mi
11:53 AM92 °FBroken clouds.6 mph58%30.06 "Hg10 mi
10:53 AM90 °FScattered clouds.9 mph63%30.06 "Hg10 mi
9:53 AM88 °FScattered clouds.12 mph70%30.06 "Hg10 mi
8:53 AM86 °FPassing clouds.7 mph77%30.06 "Hg10 mi
7:53 AM83 °FPassing clouds.5 mph85%30.05 "Hg10 mi
6:53 AM80 °FPassing clouds.3 mph90%30.04 "Hg8 mi
5:53 AM80 °FPassing clouds.No wind87%30.04 "Hg10 mi
4:53 AM79 °FPassing clouds.No wind90%30.04 "Hg10 mi
3:53 AM78 °FPassing clouds.No wind90%30.03 "Hg10 mi
2:53 AM79 °FPassing clouds.No wind88%30.02 "Hg10 mi
1:53 AM80 °FPassing clouds.5 mph85%30.02 "Hg10 mi
12:53 AM80 °FPassing clouds.5 mph85%30.03 "Hg10 mi
11:53 PM
Wed, Jul 27
80 °FPassing clouds.3 mph81%30.03 "Hg10 mi
Weather by CustomWeather, © 2016

See weather overviewHow to use our weather pages